WXM80 ListenWXM80 Stop

You find our weather info also at:

UK Metoffice

WeatherCloud

Weather Underground

Northeastern Weather Network

AWEKAS

Citizen Weather Observer Program (CWOP)

HAMweather, WeatherForYou, PWS Weather


Weather Underground History page Text

Daily Summary for September 30, 2017 Units:  English    Metric   Both
« Previous Day
Next Day »
Daily Weekly Monthly Yearly Custom
  High: Low: Average:
Temperature: 59.7 °F 53.8 °F 56.5 °F
Dew Point: 56.7 °F 49.4 °F 53.4 °F
Humidity: 96 % 81 % 89 %
Wind Speed: 12.7 mph 0.0 mph 4.5 mph
Wind Gust: 20.7 mph - -
Wind:- - East
Pressure: 30.22 in 29.87 in -
Precipitation: 1.45 in    
Historical Graphs
 
 
Tabular Data for September 30, 2017
Time Temperature Dew Point Pressure Wind Wind Speed Wind Gust Humidity Rainfall Rate (Hourly)
00:04 54.4 °F 50.3 °F 29.90 in Calm     86 % 0.00 in
00:09 54.4 °F 50.3 °F 29.90 in Calm     86 % 0.00 in
00:14 54.3 °F 49.9 °F 29.90 in Calm     85 % 0.00 in
00:19 54.4 °F 50.0 °F 29.90 in Calm     85 % 0.00 in
00:24 54.3 °F 49.6 °F 29.90 in Calm     84 % 0.00 in
00:29 54.3 °F 49.6 °F 29.90 in Calm     84 % 0.00 in
00:34 54.2 °F 49.5 °F 29.90 in Calm     84 % 0.00 in
00:39 54.2 °F 49.5 °F 29.90 in Calm     84 % 0.00 in
00:44 54.2 °F 49.5 °F 29.90 in Calm     84 % 0.00 in
00:49 54.1 °F 49.4 °F 29.90 in Calm     84 % 0.00 in
00:54 54.1 °F 49.7 °F 29.90 in Calm     85 % 0.00 in
00:59 54.1 °F 49.7 °F 29.91 in Calm     85 % 0.00 in
01:04 54.1 °F 49.7 °F 29.91 in Calm     85 % 0.00 in
01:09 54.2 °F 49.8 °F 29.91 in Calm     85 % 0.00 in
01:10 54.2 °F 49.8 °F 29.91 in Calm     85 % 0.00 in
01:16 54.3 °F 50.2 °F 29.91 in Calm     86 % 0.00 in
01:21 54.5 °F 50.4 °F 29.91 in Calm     86 % 0.00 in
01:26 54.7 °F 50.9 °F 29.91 in Calm     87 % 0.00 in
01:31 54.9 °F 51.4 °F 29.91 in Calm     88 % 0.00 in
01:36 55.0 °F 51.5 °F 29.91 in Calm     88 % 0.00 in
01:41 55.1 °F 51.6 °F 29.90 in Calm     88 % 0.00 in
01:46 55.2 °F 51.7 °F 29.91 in Calm     88 % 0.00 in
01:51 55.3 °F 51.8 °F 29.91 in Calm     88 % 0.00 in
01:56 55.4 °F 51.9 °F 29.91 in Calm     88 % 0.00 in
02:01 55.5 °F 52.0 °F 29.91 in Calm     88 % 0.00 in
02:06 55.5 °F 52.0 °F 29.91 in Calm     88 % 0.00 in
02:11 55.6 °F 52.1 °F 29.91 in Calm     88 % 0.00 in
02:16 55.7 °F 52.2 °F 29.91 in Calm     88 % 0.00 in
02:21 55.7 °F 52.5 °F 29.91 in Calm     89 % 0.00 in
02:26 55.8 °F 52.6 °F 29.91 in Calm     89 % 0.00 in
02:31 55.9 °F 52.7 °F 29.90 in Calm     89 % 0.00 in
02:36 55.9 °F 52.7 °F 29.90 in Calm     89 % 0.00 in
02:41 55.9 °F 52.7 °F 29.90 in Calm     89 % 0.00 in
02:46 56.0 °F 52.8 °F 29.89 in Calm     89 % 0.00 in
02:51 56.0 °F 52.8 °F 29.89 in Calm     89 % 0.00 in
02:56 56.0 °F 52.8 °F 29.88 in Calm     89 % 0.00 in
03:01 56.1 °F 52.9 °F 29.88 in Calm     89 % 0.00 in
03:06 56.1 °F 52.9 °F 29.88 in Calm     89 % 0.00 in
03:11 56.1 °F 52.9 °F 29.88 in Calm     89 % 0.00 in
03:16 56.1 °F 52.9 °F 29.88 in Calm     89 % 0.00 in
03:21 56.1 °F 52.9 °F 29.88 in Calm     89 % 0.00 in
03:26 56.2 °F 53.0 °F 29.89 in Calm     89 % 0.00 in
03:31 56.2 °F 53.0 °F 29.88 in Calm     89 % 0.00 in
03:36 56.2 °F 53.0 °F 29.88 in Calm     89 % 0.00 in
03:41 56.1 °F 53.2 °F 29.88 in Calm     90 % 0.00 in
03:46 56.1 °F 53.2 °F 29.88 in Calm     90 % 0.00 in
03:51 56.1 °F 53.2 °F 29.88 in Calm     90 % 0.00 in
03:56 56.1 °F 53.2 °F 29.88 in Calm     90 % 0.00 in
04:01 56.0 °F 53.1 °F 29.88 in Calm     90 % 0.00 in
04:06 56.0 °F 53.1 °F 29.87 in Calm     90 % 0.00 in
04:11 56.0 °F 53.1 °F 29.87 in SSE 0.5 mph 1.2 mph 90 % 0.00 in
04:16 56.0 °F 53.4 °F 29.87 in Calm     91 % 0.00 in
04:22 56.0 °F 53.4 °F 29.88 in Calm   1.0 mph 91 % 0.00 in
04:27 56.1 °F 53.8 °F 29.88 in Calm     92 % 0.00 in
04:32 56.1 °F 53.8 °F 29.88 in SSE 0.5 mph 1.2 mph 92 % 0.00 in
04:37 56.1 °F 53.8 °F 29.88 in Calm     92 % 0.00 in
04:42 56.2 °F 53.9 °F 29.88 in SSE 1.3 mph 2.0 mph 92 % 0.00 in
04:47 56.2 °F 53.9 °F 29.88 in SSE 0.1 mph 1.2 mph 92 % 0.00 in
04:52 56.2 °F 53.9 °F 29.88 in Calm     92 % 0.00 in
04:57 56.2 °F 53.9 °F 29.88 in Calm     92 % 0.00 in
05:02 56.2 °F 53.6 °F 29.88 in Calm     91 % 0.00 in
05:07 56.1 °F 53.5 °F 29.88 in SSE 0.1 mph 2.3 mph 91 % 0.00 in
05:12 56.1 °F 53.5 °F 29.88 in Calm     91 % 0.00 in
05:17 56.0 °F 53.4 °F 29.88 in Calm     91 % 0.00 in
05:22 55.9 °F 53.3 °F 29.88 in Calm     91 % 0.00 in
05:27 55.8 °F 53.2 °F 29.89 in Calm     91 % 0.00 in
05:32 55.7 °F 53.1 °F 29.89 in Calm     91 % 0.00 in
05:37 55.6 °F 53.0 °F 29.89 in Calm     91 % 0.00 in
05:42 55.5 °F 52.6 °F 29.89 in Calm     90 % 0.00 in
05:47 55.4 °F 52.5 °F 29.89 in Calm     90 % 0.00 in
05:52 55.3 °F 52.7 °F 29.89 in Calm     91 % 0.00 in
05:57 55.3 °F 52.7 °F 29.89 in Calm     91 % 0.00 in
06:02 55.1 °F 52.5 °F 29.90 in Calm     91 % 0.00 in
06:07 55.1 °F 52.2 °F 29.90 in Calm     90 % 0.00 in
06:12 54.9 °F 52.0 °F 29.90 in Calm     90 % 0.00 in
06:17 54.8 °F 51.9 °F 29.90 in SSE 0.1 mph 1.2 mph 90 % 0.00 in
06:23 54.7 °F 52.1 °F 29.90 in Calm     91 % 0.00 in
06:28 54.6 °F 52.0 °F 29.90 in Calm     91 % 0.00 in
06:33 54.5 °F 51.9 °F 29.90 in Calm     91 % 0.00 in
06:38 54.3 °F 51.7 °F 29.90 in Calm     91 % 0.00 in
06:43 54.2 °F 51.6 °F 29.90 in Calm   1.2 mph 91 % 0.00 in
06:48 54.1 °F 51.5 °F 29.91 in SSE 0.1 mph 1.2 mph 91 % 0.00 in
06:53 54.0 °F 51.4 °F 29.90 in Calm   1.2 mph 91 % 0.00 in
06:58 53.9 °F 51.6 °F 29.90 in Calm     92 % 0.00 in
07:03 53.9 °F 51.6 °F 29.90 in SSE 0.1 mph 1.2 mph 92 % 0.00 in
07:13 53.8 °F 51.8 °F 29.91 in Calm     93 % 0.00 in
07:18 53.9 °F 51.9 °F 29.91 in Calm     93 % 0.00 in
07:23 54.2 °F 52.5 °F 29.91 in Calm     94 % 0.00 in
07:28 54.5 °F 53.1 °F 29.91 in North 1.8 mph 3.5 mph 95 % 0.00 in
07:33 55.1 °F 53.7 °F 29.91 in NNW 0.5 mph 2.3 mph 95 % 0.00 in
07:43 55.9 °F 54.8 °F 29.92 in NNW 3.9 mph 9.0 mph 96 % 0.00 in
07:48 56.6 °F 55.5 °F 29.92 in NNE 6.2 mph 9.0 mph 96 % 0.00 in
07:53 57.0 °F 55.9 °F 29.92 in North 6.0 mph 9.2 mph 96 % 0.00 in
07:58 57.3 °F 56.2 °F 29.92 in NNW 8.2 mph 12.7 mph 96 % 0.00 in
08:03 57.5 °F 56.4 °F 29.92 in NNE 2.7 mph 6.9 mph 96 % 0.00 in
08:08 57.6 °F 56.5 °F 29.92 in NNE 3.4 mph 5.8 mph 96 % 0.00 in
08:14 57.8 °F 56.4 °F 29.92 in NE 7.9 mph 9.0 mph 95 % 0.00 in
08:19 57.9 °F 56.5 °F 29.92 in NE 4.9 mph 7.0 mph 95 % 0.00 in
08:24 58.1 °F 56.7 °F 29.92 in North 4.6 mph 8.1 mph 95 % 0.00 in
08:29 58.2 °F 56.5 °F 29.92 in North 5.8 mph 9.2 mph 94 % 0.00 in
08:34 58.2 °F 56.5 °F 29.92 in NNE 6.1 mph 9.2 mph 94 % 0.00 in
08:39 58.3 °F 56.6 °F 29.93 in NNE 5.0 mph 8.1 mph 94 % 0.00 in
08:44 58.4 °F 56.4 °F 29.93 in NNE 5.2 mph 6.9 mph 93 % 0.00 in
08:49 58.4 °F 56.4 °F 29.94 in North 1.0 mph 3.5 mph 93 % 0.00 in
08:54 58.4 °F 56.4 °F 29.93 in North 0.8 mph 3.5 mph 93 % 0.00 in
08:59 58.4 °F 56.4 °F 29.94 in NE 2.5 mph 6.0 mph 93 % 0.00 in
09:04 58.4 °F 56.1 °F 29.93 in WNW 1.0 mph 4.0 mph 92 % 0.00 in
09:09 58.3 °F 56.0 °F 29.94 in West 5.0 mph 6.9 mph 92 % 0.00 in
09:14 58.3 °F 55.7 °F 29.94 in NW 0.9 mph 2.3 mph 91 % 0.00 in
09:19 58.2 °F 55.6 °F 29.94 in WNW 0.4 mph 2.3 mph 91 % 0.01 in
09:24 58.2 °F 55.6 °F 29.94 in WNW 0.8 mph 2.3 mph 91 % 0.04 in
09:29 58.2 °F 55.9 °F 29.95 in West 3.3 mph 8.0 mph 92 % 0.07 in
09:34 58.0 °F 55.7 °F 29.94 in WNW 4.3 mph 11.5 mph 92 % 0.11 in
09:39 57.8 °F 55.5 °F 29.94 in NNW 0.9 mph 5.8 mph 92 % 0.14 in
09:44 57.6 °F 55.6 °F 29.94 in NNE 4.7 mph 7.0 mph 93 % 0.18 in
09:49 57.5 °F 55.5 °F 29.94 in NNW 2.4 mph 5.8 mph 93 % 0.21 in
09:54 57.5 °F 55.8 °F 29.95 in NNE 2.4 mph 5.0 mph 94 % 0.24 in
09:59 57.5 °F 55.8 °F 29.95 in NNE 1.2 mph 4.6 mph 94 % 0.27 in
10:04 57.4 °F 55.7 °F 29.95 in North 5.7 mph 7.0 mph 94 % 0.30 in
10:09 57.2 °F 55.5 °F 29.95 in NNE 4.4 mph 6.9 mph 94 % 0.32 in
10:15 57.1 °F 55.7 °F 29.95 in NNW 5.5 mph 8.1 mph 95 % 0.35 in
10:20 57.0 °F 55.6 °F 29.95 in North 5.0 mph 10.4 mph 95 % 0.37 in
10:25 56.8 °F 55.4 °F 29.95 in NNE 3.2 mph 6.9 mph 95 % 0.35 in
10:30 56.7 °F 55.3 °F 29.96 in NW 4.6 mph 8.0 mph 95 % 0.34 in
10:35 56.5 °F 55.1 °F 29.97 in NNW 4.5 mph 11.5 mph 95 % 0.32 in
10:40 56.3 °F 54.6 °F 29.97 in NW 1.6 mph 10.4 mph 94 % 0.31 in
10:45 56.1 °F 54.4 °F 29.97 in North 4.9 mph 12.0 mph 94 % 0.30 in
10:50 56.0 °F 54.6 °F 29.97 in NNW 3.7 mph 8.1 mph 95 % 0.28 in
10:55 56.0 °F 54.6 °F 29.97 in ENE 7.1 mph 12.0 mph 95 % 0.28 in
11:00 56.2 °F 55.1 °F 29.97 in NNE 7.8 mph 12.7 mph 96 % 0.27 in
11:05 56.4 °F 55.3 °F 29.97 in North 3.5 mph 6.9 mph 96 % 0.28 in
11:10 56.5 °F 55.4 °F 29.97 in NNE 6.0 mph 11.5 mph 96 % 0.28 in
11:15 56.7 °F 55.6 °F 29.97 in NNE 6.2 mph 10.4 mph 96 % 0.28 in
11:20 56.8 °F 55.7 °F 29.97 in NNE 4.1 mph 10.4 mph 96 % 0.28 in
11:25 56.9 °F 55.8 °F 29.97 in NNE 6.7 mph 9.2 mph 96 % 0.28 in
11:30 57.0 °F 55.9 °F 29.97 in NNE 6.7 mph 12.7 mph 96 % 0.29 in
11:35 57.1 °F 56.0 °F 29.97 in NNE 6.7 mph 11.5 mph 96 % 0.30 in
11:40 57.1 °F 56.0 °F 29.98 in NNE 6.3 mph 8.1 mph 96 % 0.30 in
11:45 57.1 °F 56.0 °F 29.98 in NNE 7.5 mph 11.5 mph 96 % 0.30 in
11:50 57.2 °F 56.1 °F 29.98 in NNW 2.5 mph 8.1 mph 96 % 0.31 in
11:55 57.2 °F 56.1 °F 29.99 in North 4.7 mph 6.9 mph 96 % 0.30 in
12:00 57.3 °F 56.2 °F 29.99 in NNE 6.4 mph 12.7 mph 96 % 0.31 in
12:05 57.4 °F 56.3 °F 29.99 in NNE 6.9 mph 19.6 mph 96 % 0.30 in
12:10 57.3 °F 56.2 °F 29.99 in NNE 7.8 mph 11.5 mph 96 % 0.29 in
12:11 57.3 °F 56.2 °F 29.99 in North 7.0 mph 12.0 mph 96 % 0.01 in
12:16 57.2 °F 56.1 °F 29.99 in North 9.0 mph 16.0 mph 96 % 0.00 in
12:21 57.0 °F 55.9 °F 30.00 in NNE 8.0 mph 16.0 mph 96 % 0.00 in
12:26 56.9 °F 55.8 °F 30.00 in NNE 8.0 mph 17.0 mph 96 % 0.01 in
12:31 56.7 °F 55.6 °F 30.00 in NNE 5.0 mph 14.0 mph 96 % 0.01 in
12:36 56.6 °F 55.4 °F 30.00 in NNE 7.0 mph 13.0 mph 96 % 0.00 in
12:41 56.4 °F 55.3 °F 30.01 in NNE 8.0 mph 13.0 mph 96 % 0.00 in
12:46 56.3 °F 54.9 °F 30.01 in NNE 8.0 mph 14.0 mph 95 % 0.00 in
12:51 56.1 °F 54.7 °F 30.01 in NNE 6.0 mph 13.0 mph 95 % 0.00 in
12:56 56.0 °F 54.6 °F 30.01 in North 3.0 mph 12.0 mph 95 % 0.00 in
13:00 56.0 °F 54.9 °F 30.00 in NNW 4.0 mph 7.0 mph 96 % 0.26 in
13:06 56.1 °F 55.0 °F 30.01 in NNE 7.0 mph 10.0 mph 96 % 0.00 in
13:11 56.2 °F 55.1 °F 30.01 in NNE 7.0 mph 12.0 mph 96 % 0.00 in
13:16 56.2 °F 55.1 °F 30.01 in NNE 5.0 mph 12.0 mph 96 % 0.00 in
13:21 56.2 °F 55.1 °F 30.01 in NNE 6.0 mph 14.0 mph 96 % 0.00 in
13:26 56.1 °F 54.7 °F 30.01 in NNE 8.0 mph 16.0 mph 95 % 0.01 in
13:31 56.0 °F 54.6 °F 30.01 in NNE 9.0 mph 14.0 mph 95 % 0.00 in
13:36 56.0 °F 54.6 °F 30.01 in NNE 5.0 mph 12.0 mph 95 % 0.00 in
13:41 56.1 °F 55.0 °F 30.01 in NNE 5.0 mph 14.0 mph 96 % 0.01 in
13:46 56.1 °F 54.7 °F 30.01 in NNE 8.5 mph 17.3 mph 95 % 0.22 in
13:49 56.2 °F 54.8 °F 30.01 in NNE 10.7 mph 17.3 mph 95 % 0.21 in
13:54 56.2 °F 54.8 °F 30.01 in NNE 8.7 mph 12.7 mph 95 % 0.22 in
13:59 56.3 °F 54.9 °F 30.01 in North 8.9 mph 15.0 mph 95 % 0.20 in
14:04 56.3 °F 54.9 °F 30.01 in NE 9.6 mph 16.1 mph 95 % 0.19 in
14:09 56.5 °F 55.1 °F 30.01 in NE 8.5 mph 13.8 mph 95 % 0.19 in
14:14 56.6 °F 55.2 °F 30.01 in NNE 7.3 mph 12.7 mph 95 % 0.19 in
14:19 56.6 °F 54.9 °F 30.01 in NNE 5.5 mph 10.0 mph 94 % 0.18 in
14:24 56.7 °F 55.0 °F 30.01 in North 9.5 mph 16.0 mph 94 % 0.17 in
14:29 56.8 °F 55.1 °F 30.01 in NNE 9.7 mph 14.0 mph 94 % 0.16 in
14:34 56.9 °F 55.2 °F 30.01 in NNE 10.1 mph 17.3 mph 94 % 0.16 in
14:39 57.0 °F 55.3 °F 30.01 in North 12.7 mph 18.4 mph 94 % 0.15 in
14:44 57.1 °F 55.4 °F 30.02 in NNE 7.0 mph 16.1 mph 94 % 0.14 in
14:49 57.2 °F 55.5 °F 30.02 in North 8.9 mph 20.7 mph 94 % 0.14 in
14:54 57.3 °F 55.6 °F 30.03 in NE 8.6 mph 11.5 mph 94 % 0.12 in
14:59 57.3 °F 55.3 °F 30.03 in NNE 5.6 mph 10.4 mph 93 % 0.12 in
15:04 57.5 °F 55.8 °F 30.03 in NNE 7.3 mph 10.4 mph 94 % 0.12 in
15:10 57.5 °F 55.8 °F 30.03 in NE 7.5 mph 12.0 mph 94 % 0.10 in
15:15 57.6 °F 55.6 °F 30.03 in North 7.3 mph 13.0 mph 93 % 0.09 in
15:20 57.7 °F 55.7 °F 30.03 in NE 7.1 mph 12.0 mph 93 % 0.08 in
15:25 57.8 °F 55.5 °F 30.03 in NE 8.4 mph 12.7 mph 92 % 0.07 in
15:30 58.0 °F 55.4 °F 30.03 in NNE 8.6 mph 17.3 mph 91 % 0.06 in
15:35 58.1 °F 55.8 °F 30.03 in North 8.5 mph 11.5 mph 92 % 0.05 in
15:40 58.2 °F 55.3 °F 30.03 in North 5.1 mph 15.0 mph 90 % 0.04 in
15:45 58.4 °F 55.2 °F 30.04 in NE 6.8 mph 12.0 mph 89 % 0.03 in
15:50 58.5 °F 55.3 °F 30.03 in NE 8.9 mph 16.1 mph 89 % 0.02 in
15:55 58.7 °F 55.2 °F 30.04 in NNE 9.5 mph 12.7 mph 88 % 0.01 in
16:00 58.8 °F 54.9 °F 30.04 in NE 5.6 mph 10.4 mph 87 % 0.01 in
16:05 58.9 °F 55.0 °F 30.04 in NNE 9.3 mph 16.0 mph 87 % 0.00 in
16:10 59.0 °F 54.8 °F 30.04 in NNW 7.4 mph 10.4 mph 86 % 0.00 in
16:15 59.0 °F 54.5 °F 30.05 in North 9.9 mph 16.1 mph 85 % 0.00 in
16:20 59.1 °F 54.9 °F 30.05 in North 10.6 mph 16.1 mph 86 % 0.00 in
16:25 59.3 °F 54.8 °F 30.05 in NNE 6.8 mph 11.5 mph 85 % 0.00 in
16:30 59.4 °F 54.9 °F 30.05 in North 8.7 mph 16.1 mph 85 % 0.00 in
16:35 59.5 °F 54.7 °F 30.06 in NNE 12.4 mph 17.3 mph 84 % 0.00 in
16:40 59.5 °F 54.0 °F 30.06 in North 7.3 mph 17.3 mph 82 % 0.00 in
16:45 59.5 °F 54.3 °F 30.06 in NNE 5.7 mph 12.0 mph 83 % 0.00 in
16:50 59.5 °F 54.3 °F 30.06 in NNE 8.0 mph 15.0 mph 83 % 0.00 in
16:55 59.6 °F 54.4 °F 30.06 in ENE 7.0 mph 11.5 mph 83 % 0.00 in
17:01 59.6 °F 54.1 °F 30.07 in NE 6.2 mph 11.5 mph 82 % 0.00 in
17:06 59.7 °F 54.2 °F 30.07 in North 8.4 mph 11.5 mph 82 % 0.00 in
17:11 59.6 °F 53.8 °F 30.08 in North 10.1 mph 16.0 mph 81 % 0.00 in
17:16 59.5 °F 53.7 °F 30.08 in North 9.8 mph 17.3 mph 81 % 0.00 in
17:21 59.5 °F 53.7 °F 30.08 in NE 6.2 mph 11.5 mph 81 % 0.00 in
17:26 59.4 °F 53.9 °F 30.08 in NE 8.9 mph 16.1 mph 82 % 0.00 in
17:31 59.4 °F 53.9 °F 30.09 in ENE 6.4 mph 8.1 mph 82 % 0.00 in
17:36 59.3 °F 53.8 °F 30.09 in NE 7.9 mph 13.0 mph 82 % 0.00 in
17:41 59.2 °F 53.7 °F 30.09 in East 7.4 mph 12.7 mph 82 % 0.00 in
17:46 59.1 °F 53.6 °F 30.09 in NE 7.3 mph 11.5 mph 82 % 0.00 in
17:51 59.0 °F 53.5 °F 30.10 in NE 10.6 mph 17.3 mph 82 % 0.00 in
17:56 58.9 °F 53.4 °F 30.10 in North 7.0 mph 11.5 mph 82 % 0.00 in
18:00 58.9 °F 53.7 °F 30.10 in North 5.5 mph 10.4 mph 83 % 0.00 in
18:05 58.7 °F 53.5 °F 30.11 in NNE 10.1 mph 15.0 mph 83 % 0.00 in
18:10 58.6 °F 53.5 °F 30.11 in NE 7.2 mph 12.7 mph 83 % 0.00 in
18:15 58.5 °F 53.4 °F 30.11 in NE 10.2 mph 15.0 mph 83 % 0.00 in
18:20 58.4 °F 52.9 °F 30.12 in North 10.0 mph 19.6 mph 82 % 0.00 in
18:25 58.3 °F 53.2 °F 30.12 in North 7.1 mph 11.5 mph 83 % 0.00 in
18:30 58.2 °F 53.1 °F 30.12 in NNE 6.8 mph 13.8 mph 83 % 0.00 in
18:35 58.1 °F 53.0 °F 30.12 in North 7.0 mph 9.2 mph 83 % 0.00 in
18:40 58.1 °F 53.0 °F 30.12 in North 11.4 mph 13.8 mph 83 % 0.00 in
18:45 58.0 °F 52.9 °F 30.12 in NNE 6.0 mph 10.0 mph 83 % 0.00 in
18:50 58.0 °F 52.9 °F 30.12 in NNE 7.2 mph 11.5 mph 83 % 0.00 in
18:55 57.9 °F 53.1 °F 30.13 in NNE 6.1 mph 10.0 mph 84 % 0.00 in
19:01 57.8 °F 52.7 °F 30.13 in NNE 6.5 mph 11.5 mph 83 % 0.00 in
19:05 57.7 °F 52.6 °F 30.14 in North 6.0 mph 16.0 mph 83 % 0.00 in
19:11 57.7 °F 52.6 °F 30.14 in NNE 9.0 mph 14.0 mph 83 % 0.00 in
19:15 57.6 °F 52.5 °F 30.14 in NNE 9.0 mph 17.0 mph 83 % 0.00 in
19:20 57.5 °F 52.4 °F 30.14 in North 7.0 mph 15.0 mph 83 % 0.00 in
19:26 57.4 °F 52.3 °F 30.14 in NNE 6.0 mph 15.0 mph 83 % 0.00 in
19:27 57.3 °F 52.5 °F 30.14 in NNE 6.4 mph 13.8 mph 84 % 0.00 in
19:32 57.3 °F 52.2 °F 30.14 in NNE 8.8 mph 13.8 mph 83 % 0.00 in
19:38 57.1 °F 52.0 °F 30.15 in NNE 7.9 mph 11.5 mph 83 % 0.00 in
19:43 56.9 °F 52.1 °F 30.15 in NNE 6.4 mph 12.7 mph 84 % 0.00 in
19:48 56.8 °F 52.0 °F 30.15 in NNE 8.5 mph 12.7 mph 84 % 0.00 in
19:53 56.8 °F 52.0 °F 30.16 in North 6.5 mph 11.5 mph 84 % 0.00 in
19:58 56.7 °F 51.9 °F 30.16 in NNE 5.4 mph 14.0 mph 84 % 0.00 in
20:03 56.6 °F 51.8 °F 30.16 in NE 8.0 mph 15.0 mph 84 % 0.00 in
20:08 56.6 °F 51.8 °F 30.16 in North 7.0 mph 11.5 mph 84 % 0.00 in
20:13 56.6 °F 52.1 °F 30.17 in North 6.9 mph 10.4 mph 85 % 0.00 in
20:18 56.5 °F 51.7 °F 30.16 in ENE 9.4 mph 13.0 mph 84 % 0.00 in
20:23 56.4 °F 51.6 °F 30.17 in NNE 9.5 mph 12.7 mph 84 % 0.00 in
20:28 56.4 °F 51.6 °F 30.17 in NNE 10.6 mph 18.4 mph 84 % 0.00 in
20:33 56.3 °F 51.5 °F 30.18 in NE 6.7 mph 14.0 mph 84 % 0.00 in
20:39 56.3 °F 51.5 °F 30.17 in North 7.3 mph 11.5 mph 84 % 0.00 in
20:44 56.2 °F 51.4 °F 30.17 in NNE 8.6 mph 13.8 mph 84 % 0.00 in
20:49 56.2 °F 51.4 °F 30.18 in NNE 10.5 mph 17.3 mph 84 % 0.00 in
20:54 56.1 °F 51.3 °F 30.18 in NNE 6.2 mph 15.0 mph 84 % 0.00 in
20:59 56.0 °F 51.6 °F 30.18 in North 7.3 mph 10.0 mph 85 % 0.00 in
21:04 56.0 °F 51.6 °F 30.18 in NNE 8.0 mph 17.0 mph 85 % 0.00 in
21:09 56.0 °F 51.6 °F 30.19 in NNE 6.1 mph 9.0 mph 85 % 0.00 in
21:14 56.0 °F 51.6 °F 30.19 in NNE 7.9 mph 16.1 mph 85 % 0.00 in
21:19 55.9 °F 51.1 °F 30.18 in NE 6.7 mph 11.5 mph 84 % 0.00 in
21:24 55.9 °F 51.1 °F 30.18 in North 6.6 mph 12.7 mph 84 % 0.00 in
21:29 55.9 °F 51.5 °F 30.19 in NNE 8.9 mph 15.0 mph 85 % 0.00 in
21:34 55.9 °F 51.5 °F 30.19 in NE 7.6 mph 13.8 mph 85 % 0.00 in
21:39 55.8 °F 51.0 °F 30.19 in NNE 6.3 mph 13.8 mph 84 % 0.00 in
21:44 55.7 °F 50.9 °F 30.19 in NNE 7.6 mph 11.5 mph 84 % 0.00 in
21:49 55.6 °F 51.2 °F 30.19 in North 7.3 mph 15.0 mph 85 % 0.00 in
21:54 55.6 °F 51.2 °F 30.19 in NNE 8.6 mph 11.5 mph 85 % 0.00 in
21:59 55.5 °F 51.1 °F 30.19 in NNE 6.8 mph 13.8 mph 85 % 0.00 in
22:04 55.5 °F 51.1 °F 30.19 in NNE 5.6 mph 9.2 mph 85 % 0.00 in
22:09 55.5 °F 51.1 °F 30.20 in NNE 9.8 mph 14.0 mph 85 % 0.00 in
22:14 55.5 °F 51.1 °F 30.19 in NNW 6.7 mph 11.5 mph 85 % 0.00 in
22:20 55.4 °F 51.0 °F 30.20 in North 7.5 mph 12.7 mph 85 % 0.00 in
22:25 55.4 °F 51.0 °F 30.20 in NNE 6.8 mph 12.7 mph 85 % 0.00 in
22:30 55.3 °F 50.9 °F 30.20 in North 7.2 mph 14.0 mph 85 % 0.00 in
22:35 55.3 °F 50.9 °F 30.20 in NNE 5.9 mph 11.0 mph 85 % 0.00 in
22:40 55.2 °F 50.8 °F 30.20 in NNE 4.8 mph 10.4 mph 85 % 0.00 in
22:45 55.1 °F 50.7 °F 30.20 in NE 6.5 mph 11.5 mph 85 % 0.00 in
22:50 55.0 °F 50.6 °F 30.20 in NNE 6.7 mph 11.5 mph 85 % 0.00 in
22:55 55.0 °F 50.6 °F 30.20 in NE 4.0 mph 9.2 mph 85 % 0.00 in
23:00 55.0 °F 50.6 °F 30.21 in NNE 4.9 mph 11.5 mph 85 % 0.00 in
23:05 54.9 °F 50.8 °F 30.21 in NNE 6.2 mph 8.1 mph 86 % 0.00 in
23:11 54.9 °F 50.8 °F 30.21 in ENE 4.0 mph 9.2 mph 86 % 0.00 in
23:16 54.9 °F 50.8 °F 30.21 in North 3.9 mph 8.0 mph 86 % 0.00 in
23:21 54.9 °F 50.8 °F 30.21 in NNE 4.1 mph 7.0 mph 86 % 0.00 in
23:26 54.9 °F 50.8 °F 30.21 in NE 6.2 mph 16.1 mph 86 % 0.00 in
23:31 54.9 °F 50.8 °F 30.21 in NE 4.9 mph 10.4 mph 86 % 0.00 in
23:36 55.0 °F 50.9 °F 30.21 in NNE 5.2 mph 10.4 mph 86 % 0.00 in
23:41 55.0 °F 50.9 °F 30.22 in NNE 3.5 mph 5.8 mph 86 % 0.00 in
23:46 55.0 °F 50.9 °F 30.22 in NNE 2.4 mph 4.6 mph 86 % 0.00 in
23:51 55.0 °F 50.9 °F 30.21 in NNE 2.2 mph 5.8 mph 86 % 0.00 in
23:56 55.1 °F 51.0 °F 30.21 in NNE 4.0 mph 5.8 mph 86 % 0.00 in
23:57 55.1 °F 51.0 °F 30.21 in North 5.7 mph 9.2 mph 86 % 0.00 in
Crab Meadow Weather
Compliments of Weather Underground - 3 mb

Script developed by  Jim McMurry - jmcmurry@mwt.net Adapted for the template by  Wim van der Kuil - Leuven-Template.eu

Weather Terms: Flood Watch - Conditions are favorable for flash flooding in and close to the watch area. These watches are issued by the Weather Forecast Office in Upton and are usually for the first 12 to 24 hours of a forecast.